Back to catalog

KUIPER-00149

AliveCommunicationsLEO
NORAD 65968·PAYLOAD·🇺🇸 United States

Launched Oct 14, 2025 from Cape Canaveral Space Force Station

Loading…

Next Passes (next 24 hours)

TLE

FreshSource: CelesTrak SupGP

Epoch: Sep 14, 2026, 16:35 UTC

1 65968C 25228X   26257.69143519  .00002592  00000+0  33925-3 0  2572
2 65968  51.8998 222.3530 0000811  65.2018 239.2861 14.79928230    12

Track KUIPER-00149 in real time with AllMySat

Download on the App Store